Home   Weather   Köniz   Past weeks

Flag for Switzerland Past Weather in Köniz, Bern, Switzerland — Yesterday and Last 2 Weeks

Now
36 °F

Light rain. Passing clouds.


Feels Like: 31 °F
Forecast: 29 / 44 °F
Wind: 6 mph from Northwest

Location: Bern / Belp

Current Time: Apr 28, 2017 at 1:09:14 am

Latest Report: Apr 28, 2017 at 12:20 am


Visibility: N/A

Pressure: 29.89 "Hg (27.82 "Hg at 579m altitude)

Humidity: 93%

Dew Point: 34 °F

Location of KönizLocation

Past Weather in Köniz — Graph

°F

Köniz Temperature Yesterday

Maximum temperature yesterday: 41 °F (at 1:50 pm)
Minimum temperature yesterday: 36 °F (at 11:20 pm)
Average temperature yesterday: 38 °F

High & Low Weather Summary for the Past Weeks

 TemperatureHumidityPressure
High70 °F (Apr 24, 4:50 pm)100% (Apr 14, 3:20 am)30.45 "Hg (Apr 14, 3:20 am)
Low21 °F (Apr 21, 5:50 am)23% (Apr 21, 4:50 pm)29.68 "Hg (Apr 25, 10:20 pm)
Average45 °F72%30.09 "Hg
* Reported Apr 12 11:20 pm — Apr 27 11:50 pm, Köniz, Weather by CustomWeather, © 2017

Note: Actual official high and low records may vary slightly from our data, if they occured in-between our weather recording intervals... More about our weather records

Advertising

Köniz Weather History for the Previous 24 Hours

Scroll right to see more
 ConditionsComfort  
Time TempWeatherWind HumidityBarometerVisibility
11:50 pm
Thu, Apr 27
36 °FLight rain. Passing clouds.5 mph93%29.89 "HgN/A
11:20 pm36 °FLight rain. Passing clouds.5 mph93%29.92 "HgN/A
10:50 pm37 °FLight rain. Mostly cloudy.2 mph87%29.92 "HgN/A
10:20 pm37 °FLight rain. Passing clouds.2 mph87%29.92 "HgN/A
9:50 pm37 °FLight rain. Partly cloudy.1 mph93%29.92 "HgN/A
8:50 pm37 °FLight rain. Passing clouds.3 mph93%29.92 "HgN/A
8:20 pm37 °FLight rain. Broken clouds.3 mph93%29.92 "HgN/A
7:50 pm39 °FLight rain. Partly sunny.5 mph87%29.92 "HgN/A
7:20 pm39 °FLight rain. Broken clouds.5 mph87%29.92 "HgN/A
6:50 pm39 °FLight rain. Broken clouds.3 mph87%29.92 "HgN/A
6:20 pm39 °FLight rain. Partly sunny.5 mph93%29.92 "HgN/A
5:50 pm39 °FLight rain. Partly sunny.5 mph87%29.92 "HgN/A
5:20 pm39 °FLight rain. Partly sunny.6 mph87%29.92 "HgN/A
4:50 pm39 °FLight rain. Partly sunny.6 mph87%29.92 "HgN/A
4:20 pm41 °FLight rain. Broken clouds.5 mph81%29.92 "HgN/A
3:50 pm41 °FDrizzle. Partly sunny.8 mph81%29.92 "HgN/A
3:20 pm41 °FDrizzle. Broken clouds.5 mph81%29.92 "HgN/A
2:50 pm41 °FBroken clouds.5 mph76%29.95 "HgN/A
2:20 pm41 °FBroken clouds.3 mph81%29.92 "HgN/A
1:50 pm41 °FPartly sunny.3 mph81%29.92 "HgN/A
1:20 pm39 °FDrizzle. Broken clouds.5 mph87%29.95 "HgN/A
12:50 pm39 °FLight rain. Broken clouds.3 mph87%29.95 "HgN/A
12:20 pm39 °FLight rain. Broken clouds.5 mph81%29.95 "HgN/A
11:50 am39 °FLight rain. More clouds than sun.6 mph87%29.95 "HgN/A
11:20 am39 °FDrizzle. Partly sunny.7 mph87%29.95 "HgN/A
10:50 am37 °FLight rain. Mostly cloudy.6 mph93%29.95 "HgN/A
10:20 am37 °FLight rain. Low clouds.6 mph93%29.92 "HgN/A
9:50 am37 °FCloudy.7 mph93%29.92 "Hg4 mi
9:20 am39 °FLight rain. Mostly cloudy.6 mph87%29.92 "Hg4 mi
8:50 am37 °FLight rain. Broken clouds.3 mph93%29.92 "Hg4 mi
8:20 am37 °FLight rain. Broken clouds.1 mph100%29.92 "Hg4 mi
7:50 am37 °FDrizzle. Broken clouds.2 mph100%29.92 "Hg5 mi
7:20 am37 °FDrizzle. Broken clouds.2 mph100%29.92 "HgN/A
6:50 am37 °FBroken clouds.2 mph93%29.92 "HgN/A
6:20 am37 °FPartly cloudy.2 mph93%29.92 "HgN/A
5:50 am37 °FLight rain. Partly cloudy.3 mph93%29.89 "HgN/A
5:20 am37 °FLight rain. Partly cloudy.2 mph93%29.89 "HgN/A
4:50 am37 °FPartly cloudy.2 mph93%29.89 "HgN/A
4:20 am37 °FPassing clouds.3 mph93%29.89 "HgN/A
3:50 am37 °FLight rain. Partly cloudy.3 mph93%29.89 "Hg6 mi
3:20 am37 °FLight rain. Partly cloudy.3 mph93%29.89 "HgN/A
2:50 am37 °FLight rain. Partly cloudy.5 mph93%29.89 "HgN/A
2:20 am37 °FLight rain. Mostly cloudy.2 mph93%29.89 "HgN/A
1:50 am37 °FLight rain. Partly cloudy.2 mph93%29.89 "HgN/A
1:20 am39 °FLight rain. Partly cloudy.3 mph87%29.89 "HgN/A
Weather by CustomWeather, © 2017

See weather overviewHow to use our weather pages